Tracking 17938 objects as of 22-February-2017
HD Live streaming from Space Station
objects crossing your sky now

NAVSTAR 28 (USA 85)

Track NAVSTAR 28 (USA 85) now!
NAVSTAR 28 (USA 85) is classified as:


NORAD ID: 22231
Int'l Code: 1992-079A
Perigee: 19,965.5 km
Apogee: 20,414.3 km
Inclination: 55.3 °
Period: 718.0 minutes
Semi major axis: 26560 km
RCS: 3.981 m2 (large)
Launch date: November 22, 1992
Source: United States (US)
Launch site: AIR FORCE EASTERN TEST RANGE (AFETR)
PRN:
Your satellite tracking list
Your tracking list is empty





NASA's NSSDC Master Catalog

Two Line Element Set (TLE):
1 22231U 92079A   17053.37895022  .00000065  00000-0  00000+0 0  9999
2 22231  55.3237 231.5117 0084473 308.5535  57.4895  2.00557305177697
Source of the keplerian elements: AFSPC